Regional Weather Roundup
Issued by NWS Newport/Morehead, NC

Current Version | Previous Version | Text Only | Print | Product List | Glossary On
Versions: 1 2 3 4 5 6 7 8 9 10 11 12 13 14 15 16 17 18 19 20 21 22 23 24 25 26 27 28 29 30 31 32 33 34 35 36 37 38 39 40 41 42 43 44 45 46 47 48 49 50
000
ASUS42 KMHX 231714
RWRMHX
WEATHER ROUNDUP FOR EASTERN NORTH CAROLINA
NATIONAL WEATHER SERVICE NEWPORT/MOREHEAD CITY NC
100 PM EDT TUE MAY 23 2017

NOTE: "FAIR" INDICATES FEW OR NO CLOUDS BELOW 12,000 FEET
WITH NO SIGNIFICANT WEATHER AND/OR OBSTRUCTIONS TO VISIBILITY

NCZ015>017-031-032-045>047-102-103-231800-
NORTH COAST

CITY           SKY/WX    TMP DP  RH WIND       PRES   REMARKS
EDENTON        DRIZZLE   69  67  92 E8        29.85F
ELIZABETH CITY LGT RAIN  67  67 100 NE14      29.84F FOG
KITTY HAWK     NOT AVBL
MANTEO         DRIZZLE   68  67  99 SE10      29.85F

$$

NCZ045>047-081-094-103-104-231800-
CENTRAL COAST

CITY           SKY/WX    TMP DP  RH WIND       PRES   REMARKS
FRISCO         NOT AVBL

$$

NCZ095-097-098-100-101-231800-
SOUTHERN COAST

CITY           SKY/WX    TMP DP  RH WIND       PRES   REMARKS
BEAUFORT       RAIN      72  72 100 SW13      29.81F FOG
CEDAR ISLAND   NOT AVBL
JACKSONVILLE   NOT AVBL
PINEY ISLAND   RAIN     N/A N/A N/A S12       29.80F
WILMINGTON     CLOUDY    78  73  84 S8        29.81S


$$

NCZ011>013-027>030-043-044-078>080-089-090>093-098-231800-
COASTAL PLAIN

CITY           SKY/WX    TMP DP  RH WIND       PRES   REMARKS
AHOSKIE        RAIN      65  64  97 NE8       29.84F
CLINTON        CLOUDY    74  71  88 W3        29.80F
ELIZABETHTOWN  CLOUDY    77  69  75 SW7       29.80F
GOLDSBORO      NOT AVBL
GREENVILLE     CLOUDY    70  70 100 E7        29.84F
HAVELOCK       LGT RAIN  74  70  87 S9        29.80F FOG
KENANSVILLE    CLOUDY    75  70  83 CALM      29.80F
KINSTON        CLOUDY    75  72  88 S5        29.80F
NEW BERN       CLOUDY    74  73  97 S9        29.80F
RICHLANDS      CLOUDY    76  72  87 S8        29.80F
ROCKY MOUNT    CLOUDY    69  68  96 VRB6      29.82F
WASHINGTON     DRIZZLE   70  69  96 E3        29.81F
WHITEVILLE     LGT RAIN  76  69  80 SW5       29.81S

$$

AMZ130-135-150-152-154-156-158-170-250-252-270-ANZ085-086-088-633-658-670-231800-
MARINE OBSERVATIONS

STATION/POSITION TIME  TEMP    WIND        PRES    WAVE   SWELL
                       AIR SEA DIR/SP/G            HT/PER HT/PER
                 (UTC) (F)     (DEG/KT/KT) (MB)    (FT/S) (FT/S)
CHESAPEAKE LIGHT NOT AVBL
64 E VA BEACH    1650   66 64   90/ 14/ 17 1011.9    4/ 5   2/ 8
DUCK             1648   65 65   90/ 12/ 15 1010.4
2 E DUCK         1700      65                N/A     3/ 6
OREGON INLET     1648           80/  8/ 10   N/A
13E OREGON INLT  1648      68                N/A     3/ 5   3/ 5
HATTERAS CG      1648   72 74  190/  5/  9 1010.0
DIAMOND BUOY     1650   75 77  210/ 23/ 27 1009.9    4/ 5   2/11
CAPE LOOKOUT     1700   72     190/ 14/ 18 1009.0
BEAUFORT LAB     1648   72 74  210/  7/ 13 1008.6
30 SE NEW RVR IN 1608   73 76  240/ 21/ 29 1010.3
30 SE NEW RVR IN 1643      76                N/A     6/ 6
27 SE WRIGHTSVLE 1608   73 75  210/ 19/ 27 1010.5
5 SE WRIGHTSVLE  1608   74 75  210/  8/ 14 1010.9
225 S CAPE HAT   1650   76 76  200/ 17/ 19 1014.6    5/ 5   2/14
41 SE CHARLESTON 1650   77 78  210/ 14/ 17 1010.5    6/ 6   2/12

$$



USA.gov is the U.S. government's official web portal to all federal, state and local government web resources and services.